Wind_Speed
23 23 23 24 24 25 25 25 25 26 26 26 25 25 26 26 26 25 25 24 24 24 23 22 22 20 19 18 18 17 17 18 19 19 20 21 22 23 24 24 25 25 25 25 24 24 24 24 24 24 23 23 23 23 23 23 23 23 23 24 24 24 24 24 25 25 25 25 25 25 25 26 26 26 26 26 26 26 25 25 25 25 25 25 24 24
22 23 22 23 23 24 25 24 24 24 25 25 25 25 25 25 25 25 24 24 23 23 23 22 21 20 18 17 17 17 17 18 18 19 20 21 22 22 23 24 25 25 25 25 25 25 24 24 24 24 24 24 24 24 23 23 23 23 23 24 24 24 24 24 25 25 25 26 26 26 26 27 27 27 27 27 27 26 26 26 26 26 25 25 25 25
22 22 22 22 23 24 24 23 23 24 24 24 24 24 24 24 24 24 24 23 23 23 22 21 20 19 18 17 17 17 18 18 19 19 20 20 21 22 23 23 24 24 25 25 25 24 24 24 24 24 24 24 24 24 24 24 24 24 24 24 24 24 24 25 25 25 25 26 26 26 27 27 27 27 27 27 27 27 27 26 26 26 26 25 25 25
22 23 23 23 23 23 23 23 23 23 23 23 23 24 23 23 23 23 23 23 23 22 21 20 19 18 18 18 18 18 19 19 19 19 20 20 20 21 21 22 23 23 24 24 24 24 24 24 24 24 24 24 24 24 24 24 24 24 24 24 24 25 25 25 25 26 26 26 26 27 27 27 28 28 28 28 28 27 27 27 26 26 26 26 26 25
22 23 23 23 23 23 23 23 23 23 23 23 22 22 22 22 22 23 23 22 22 21 20 20 19 18 18 19 19 20 20 20 20 20 20 20 20 20 20 21 21 22 22 23 23 23 23 23 23 23 23 23 23 23 24 24 24 25 25 25 25 26 26 26 26 26 26 27 27 27 28 28 28 28 28 28 28 28 28 27 27 27 26 26 26 25
22 22 23 23 23 23 23 22 22 22 22 22 21 21 21 21 22 21 21 21 21 20 20 19 19 19 20 20 21 21 21 21 21 20 20 19 19 19 19 19 20 20 21 21 22 22 22 22 22 22 22 22 23 23 24 24 25 25 26 26 26 27 27 27 27 27 27 27 28 28 29 29 29 29 29 29 29 28 28 28 27 27 27 26 26 26
22 22 22 23 23 23 22 22 21 21 21 21 21 21 21 21 20 20 20 19 19 19 20 20 20 21 21 22 22 23 22 22 21 21 20 19 19 18 18 18 18 19 19 20 20 20 20 20 20 20 21 21 22 22 23 24 25 26 26 27 27 28 28 28 28 28 28 28 28 29 29 30 30 30 30 30 29 29 28 28 28 27 27 27 27 26
23 22 22 22 22 22 22 21 20 20 20 20 20 21 21 20 20 19 18 19 19 19 20 21 21 22 22 23 23 23 23 22 22 21 20 19 18 18 18 17 17 17 18 18 18 18 18 18 19 19 20 20 21 22 22 23 24 25 26 27 27 28 28 28 28 28 28 28 29 29 30 30 30 31 30 30 30 29 29 28 28 28 27 27 27 27
23 23 22 22 22 22 22 21 19 19 19 19 19 20 20 20 19 19 19 18 19 19 20 22 22 23 23 23 23 23 23 23 22 21 20 19 18 18 17 17 17 17 17 17 17 17 17 17 18 18 19 19 20 21 21 22 23 24 25 26 26 27 27 27 27 28 28 28 29 29 30 30 31 31 31 30 30 30 29 29 29 28 28 28 27 27
23 23 23 22 22 21 21 21 19 19 18 19 19 19 19 19 19 19 20 20 20 20 21 23 24 24 24 24 24 24 23 23 22 21 20 19 19 18 18 17 17 17 16 16 16 17 17 18 18 19 19 19 20 20 20 21 22 22 23 24 24 25 25 26 26 27 27 28 28 29 30 30 31 31 31 31 30 30 30 29 29 29 28 28 28 27
23 23 23 22 22 21 21 21 20 19 19 19 19 19 18 18 18 19 20 21 22 22 23 24 25 25 26 26 25 25 24 24 23 22 21 20 20 19 19 19 18 18 18 18 18 18 19 19 19 19 19 19 19 19 19 19 20 20 20 21 22 22 23 24 25 25 26 27 28 28 29 30 30 31 31 31 30 30 30 30 29 29 29 28 28 27
23 23 23 22 22 21 21 20 20 20 20 19 19 18 18 17 17 18 20 22 23 24 25 25 26 26 27 27 27 26 25 25 24 23 23 22 22 22 22 22 21 21 21 20 20 20 20 20 20 19 19 18 18 18 18 18 18 18 18 19 19 20 21 21 22 24 25 26 27 28 28 29 30 30 31 31 31 30 30 30 30 29 29 29 28 28
23 22 22 22 21 21 21 20 20 20 19 19 18 17 17 17 18 19 21 23 24 25 26 27 27 28 27 27 27 26 25 25 25 24 24 24 24 24 24 24 24 24 24 23 23 22 21 21 20 19 18 17 17 17 17 17 17 17 17 17 17 18 19 20 21 22 24 25 26 27 28 29 29 30 30 30 31 30 30 30 30 29 29 28 28 28
22 22 21 21 21 21 20 20 19 19 19 18 17 17 17 18 19 20 22 24 25 26 26 27 28 28 28 27 26 25 24 24 24 24 24 24 24 24 25 25 26 26 25 25 24 22 21 20 19 19 18 17 17 17 17 17 16 16 16 16 16 17 18 19 20 21 23 24 25 26 27 28 28 29 30 30 30 30 30 29 29 29 28 28 27 27
22 21 21 21 21 20 20 19 19 19 19 18 17 17 18 18 19 21 22 24 26 27 27 28 29 29 29 27 25 24 23 23 24 25 25 26 25 25 25 26 26 26 25 25 23 22 21 20 19 19 19 18 18 18 18 17 17 16 16 16 16 17 18 19 20 21 22 23 24 25 26 27 27 28 28 29 29 29 29 28 28 28 27 27 27 27
21 21 21 21 21 20 19 19 19 19 19 19 18 17 17 18 20 22 23 25 26 27 28 29 30 31 30 27 25 23 23 23 24 26 27 28 27 26 26 26 26 26 25 24 23 22 21 21 20 20 20 20 19 19 18 18 18 18 18 18 18 18 18 18 19 20 21 22 23 24 25 25 26 26 27 27 28 28 28 27 27 27 27 26 26 26
21 21 21 21 21 20 19 19 19 20 19 19 19 18 18 19 20 22 23 25 26 27 27 28 29 30 30 29 26 24 23 24 26 28 30 31 30 28 27 27 27 27 26 26 25 24 24 23 22 22 21 21 20 20 20 20 20 20 20 19 19 19 18 18 19 19 20 21 22 23 23 24 24 25 25 26 26 27 27 27 27 26 26 26 26 27
22 21 22 22 21 21 20 20 20 20 19 19 19 19 19 20 21 22 23 24 25 26 27 28 28 28 29 29 27 25 24 25 27 29 31 33 32 30 28 28 28 28 29 28 27 26 26 25 24 23 22 21 21 21 21 21 21 21 21 21 20 20 19 19 19 19 19 20 20 21 21 22 22 23 24 25 25 26 26 27 27 27 27 27 27 27
22 22 22 21 21 21 21 21 21 20 19 18 18 19 19 20 21 22 23 25 26 26 27 27 28 28 27 28 27 26 26 26 27 30 32 34 33 31 29 29 30 30 31 30 30 29 28 26 25 23 22 22 22 22 22 22 23 22 22 21 21 20 19 19 19 18 18 18 18 19 19 20 21 22 24 24 25 26 26 27 27 27 27 27 27 27
23 23 22 22 21 22 22 22 21 20 19 19 19 19 21 22 23 24 25 26 27 27 27 27 27 27 26 26 27 27 27 27 28 31 33 35 34 32 30 30 31 32 33 33 31 30 29 27 26 24 23 23 23 23 24 24 24 23 22 21 21 20 19 19 18 17 17 17 17 17 18 20 21 22 23 24 25 26 26 27 27 27 27 27 27 27
24 24 22 21 22 23 23 23 22 21 21 21 21 22 23 25 26 26 27 27 27 28 28 27 26 26 26 26 27 27 27 28 29 30 33 34 34 33 30 30 31 33 34 34 32 30 29 28 27 26 25 25 25 25 25 25 24 23 22 21 20 20 19 18 18 17 16 16 17 17 18 19 20 21 22 23 24 25 25 26 26 26 26 26 26 26
26 25 23 22 23 24 24 23 23 22 22 23 24 25 26 27 27 27 28 28 28 28 28 28 27 26 26 27 28 28 27 27 27 28 30 32 34 33 31 31 32 34 35 34 33 31 29 29 28 27 27 27 27 26 26 25 24 23 22 22 21 20 20 19 19 18 18 18 17 17 18 18 19 19 20 21 22 23 23 24 24 24 25 25 25 25
28 27 26 25 25 25 25 25 24 24 24 25 26 27 27 27 27 28 28 28 28 28 29 28 28 28 27 28 28 28 27 26 25 25 26 28 32 33 33 33 33 34 35 34 33 31 31 30 30 30 29 28 28 27 26 25 25 24 23 23 23 23 23 22 22 22 21 20 19 19 18 18 18 18 19 19 20 21 21 22 22 23 23 24 24 25
29 29 28 27 27 26 26 26 25 25 25 26 27 28 28 27 27 27 28 28 28 29 29 29 29 29 29 29 29 29 27 25 24 23 24 26 30 34 35 34 34 35 35 34 33 32 33 33 32 32 31 29 28 27 26 26 25 25 25 25 25 25 26 26 25 25 24 23 22 21 20 19 18 18 17 18 18 19 19 20 21 21 22 23 24 24
29 29 28 28 27 26 26 26 26 26 26 26 27 27 27 27 27 27 28 28 29 29 28 28 28 29 29 28 28 27 26 24 22 22 23 26 30 34 35 35 34 34 35 34 34 34 34 35 34 33 32 30 29 28 27 26 26 26 27 27 27 27 28 27 27 26 25 24 23 21 20 19 18 17 17 17 17 17 18 18 19 20 21 22 23 23
26 26 26 26 26 26 26 26 25 25 25 25 25 25 25 25 26 27 27 28 28 28 27 27 27 27 27 27 26 26 25 23 23 23 25 28 32 35 36 34 32 31 33 35 35 35 36 37 36 34 33 31 29 28 28 28 28 28 29 29 29 29 29 28 27 26 24 23 21 20 19 18 17 16 16 16 16 16 17 17 18 18 19 20 21 22
24 24 24 24 24 24 25 24 24 24 23 23 23 23 24 24 25 26 28 28 27 26 25 25 25 26 26 26 26 26 26 25 25 25 27 29 32 34 34 31 30 30 32 35 36 36 36 37 36 35 33 31 30 29 29 29 30 30 30 31 30 30 29 28 26 25 23 21 20 19 18 17 17 16 16 16 16 16 16 16 17 17 18 18 20 20
23 23 23 22 22 22 23 23 23 23 23 23 22 22 23 23 25 27 28 27 26 24 23 23 24 25 26 26 27 28 28 28 28 29 28 28 28 30 30 29 29 30 32 35 37 37 36 36 35 34 33 31 31 31 31 31 31 32 32 32 31 30 29 27 26 24 22 21 20 19 18 18 18 17 17 17 17 17 16 16 16 16 17 18 18 19
23 22 22 21 21 21 21 21 21 21 22 22 22 22 23 24 26 27 27 26 25 24 24 23 24 25 26 27 29 30 30 30 28 27 25 24 25 27 29 29 29 30 32 35 37 37 36 35 33 32 31 31 31 32 32 32 33 33 33 32 31 30 29 27 26 24 23 22 21 20 20 19 19 19 19 18 18 18 17 16 16 16 17 17 18 18
23 23 22 22 21 21 21 21 21 21 21 21 21 21 22 24 25 26 25 24 24 24 24 24 24 25 26 27 29 30 29 27 24 21 20 22 25 28 30 30 31 31 31 32 34 35 35 35 33 30 30 31 33 33 34 34 34 34 33 33 32 30 29 28 26 25 24 23 22 22 21 21 20 20 19 19 19 18 17 16 16 16 16 17 17 18
24 24 24 23 23 22 22 22 22 22 22 21 21 20 21 22 22 23 23 23 23 23 23 24 25 25 26 26 26 27 26 25 23 22 22 24 27 30 31 31 32 32 30 28 28 30 33 35 35 33 32 34 35 35 35 35 34 34 34 33 32 31 30 28 27 26 25 24 23 23 22 22 21 21 20 19 18 18 17 15 15 15 16 17 17 18
25 25 25 25 25 24 24 24 24 24 24 23 23 22 21 20 20 20 20 20 20 20 21 22 23 24 24 25 27 28 29 29 27 26 25 27 29 31 30 30 31 31 31 29 27 27 28 33 37 38 37 37 37 37 36 35 35 35 34 34 33 32 30 29 28 27 26 25 24 24 23 22 22 21 20 19 18 17 16 15 14 15 16 17 18 19
23 24 25 26 26 25 25 25 25 25 26 25 25 25 24 22 21 20 18 18 17 17 18 19 21 23 24 26 28 30 31 30 29 27 26 27 29 30 30 30 32 33 33 32 30 29 30 33 37 40 40 39 38 38 37 36 36 35 34 34 33 32 31 29 29 28 27 26 25 24 23 22 22 21 20 19 18 17 15 14 14 14 15 17 19 20
22 23 25 26 26 27 26 26 26 26 26 26 26 26 25 24 23 21 19 18 17 17 18 19 21 22 24 26 28 30 30 29 28 26 25 26 28 30 31 32 33 34 34 33 32 32 33 34 36 38 39 39 39 38 38 37 36 35 34 33 33 32 31 30 29 28 28 27 25 25 24 23 22 21 20 19 18 17 15 15 14 15 15 17 19 20
24 25 26 27 28 28 27 27 26 26 26 26 26 26 25 24 23 22 21 20 20 20 20 21 22 23 24 26 28 30 30 29 27 25 24 25 27 30 32 33 33 33 33 33 33 33 34 34 34 35 37 39 40 39 38 36 35 35 34 33 32 32 31 30 29 29 28 27 26 25 24 23 22 21 20 19 18 17 16 16 16 16 16 16 17 19
27 28 29 29 29 29 29 28 28 27 27 26 26 26 26 25 24 23 23 22 22 22 23 23 24 24 25 25 27 29 30 29 26 25 24 25 27 29 31 33 33 32 32 33 33 33 33 34 34 34 35 37 39 40 39 37 35 35 34 33 33 32 31 30 29 28 27 26 26 25 24 24 23 22 21 19 18 18 17 17 17 17 17 17 17 18
30 30 30 31 30 30 30 30 29 29 28 28 28 27 27 26 25 25 24 24 24 24 25 25 26 26 27 27 28 29 29 28 26 25 24 25 26 28 30 32 32 31 31 31 32 32 32 33 34 34 34 35 36 38 38 37 36 35 35 34 33 32 31 29 28 27 27 27 26 26 25 24 23 22 21 20 19 18 18 18 18 18 18 19 19 19
31 32 32 32 31 31 31 31 30 30 29 28 28 27 27 26 26 25 25 25 25 26 26 27 27 28 28 29 29 30 29 28 26 25 25 25 26 28 30 31 31 30 29 29 29 29 30 31 32 33 34 34 36 37 37 37 37 36 35 34 33 32 31 30 29 28 27 27 26 26 25 24 23 22 22 21 20 20 20 20 20 20 21 21 21 21
31 32 32 32 32 32 31 31 30 29 28 27 27 26 25 25 25 25 25 26 27 27 28 28 28 29 29 30 30 29 28 27 25 25 25 26 27 28 29 30 30 29 28 27 27 27 28 29 30 31 33 34 36 36 36 36 36 36 36 35 34 33 31 30 29 28 28 27 26 26 25 24 23 23 23 22 22 22 23 23 23 22 23 23 24 24
31 31 32 32 31 31 30 29 28 26 25 25 24 24 24 24 24 25 26 27 28 29 29 29 29 29 30 30 29 28 27 26 25 25 26 27 28 28 29 29 29 28 27 26 26 26 26 28 29 30 31 32 34 36 36 35 35 35 35 36 36 35 33 31 30 29 28 27 26 26 26 25 24 24 24 23 23 23 23 24 24 24 24 24 25 26
31 32 32 31 31 29 28 27 26 24 23 23 23 23 24 24 25 26 28 29 30 30 30 29 29 30 30 30 29 27 26 26 26 26 27 28 28 28 28 28 27 26 26 25 25 26 26 27 29 30 31 31 33 34 35 35 35 34 34 34 35 35 34 33 31 29 28 27 27 26 26 26 25 24 24 24 23 23 24 24 25 25 25 25 25 26
28 30 31 31 30 30 29 28 27 27 26 26 26 26 27 27 29 30 31 31 31 30 30 29 29 30 31 30 29 27 27 26 27 27 28 29 29 28 27 26 25 25 24 24 25 26 27 27 28 29 30 30 31 33 35 35 34 34 33 33 34 35 35 33 30 29 28 28 27 27 26 26 25 25 25 25 25 25 25 25 25 26 26 26 26 26
25 25 26 26 28 29 29 30 30 30 30 30 30 30 31 31 32 32 32 32 31 31 30 30 30 31 31 31 30 29 28 27 28 29 29 29 28 27 26 25 24 23 23 24 25 26 27 27 28 29 29 29 30 32 34 35 35 34 32 32 32 33 33 33 32 30 30 29 28 27 26 26 26 27 27 27 28 28 27 27 27 27 27 27 27 28
24 23 23 23 25 26 28 30 30 31 31 31 31 32 32 32 32 32 32 32 31 31 31 31 31 31 31 31 31 30 29 29 29 29 29 28 27 26 25 24 23 23 23 23 25 26 27 28 28 29 29 29 29 31 33 34 35 35 34 32 31 31 32 33 33 32 31 30 28 27 27 27 28 29 30 30 30 30 30 29 29 29 29 29 29 30
25 24 23 23 24 25 28 29 30 31 31 31 31 31 32 32 32 32 32 32 32 32 31 31 30 30 31 31 31 31 31 30 30 29 28 27 26 24 23 22 22 22 23 24 25 25 26 28 28 28 28 28 29 30 31 33 34 35 34 33 32 32 33 33 32 32 31 30 30 29 28 28 29 30 32 32 32 32 32 31 31 31 31 31 31 31
27 26 25 24 24 25 27 29 30 30 31 31 31 32 32 32 32 32 32 32 32 32 31 31 30 30 30 31 31 31 31 31 31 30 28 26 24 23 21 21 21 21 22 23 24 25 26 27 27 28 28 28 30 31 31 32 33 34 35 34 33 33 33 32 31 30 30 30 30 30 30 29 30 31 31 32 33 33 33 32 32 32 32 33 33 33
28 27 27 26 26 26 27 28 29 30 31 32 32 32 32 32 32 33 33 33 32 32 31 30 30 30 30 30 30 31 31 32 31 30 28 26 24 21 20 19 19 20 21 22 23 24 25 25 26 26 27 28 31 32 32 32 32 33 33 33 33 33 33 33 31 30 30 30 30 31 30 30 30 31 31 32 33 34 35 34 34 34 34 34 34 34
27 27 27 27 27 27 28 29 30 31 32 32 32 32 32 32 32 32 32 32 32 31 31 30 29 29 29 29 30 30 31 31 31 30 28 26 24 22 20 19 19 19 20 21 22 23 24 24 24 24 25 27 30 32 32 32 31 31 31 31 31 31 32 32 31 30 30 30 30 30 29 29 29 30 31 33 34 36 37 37 36 35 34 33 33 33
27 27 27 27 27 28 28 29 30 31 32 32 32 32 32 32 32 32 32 31 31 30 30 29 29 29 29 29 30 30 30 31 30 29 27 25 23 22 21 20 20 20 21 21 22 22 23 24 24 24 24 25 27 29 31 30 29 28 28 28 29 30 31 31 31 30 30 30 30 29 29 29 30 31 32 34 36 38 40 39 38 36 34 33 32 32
25 26 26 27 28 28 29 29 29 30 31 31 32 32 32 31 31 31 30 30 30 30 29 29 28 29 29 29 30 30 30 30 29 27 25 23 22 21 20 20 20 20 21 21 22 22 22 23 24 25 24 23 23 24 26 27 27 27 27 27 28 28 29 30 30 30 29 29 29 30 31 32 32 33 33 34 35 37 39 39 38 37 35 33 32 32
21 22 23 24 26 26 27 27 28 29 30 31 31 31 31 30 30 30 29 29 29 29 29 29 28 29 29 29 30 29 29 28 27 26 24 22 20 20 19 19 19 19 19 20 21 22 22 23 24 25 25 22 20 19 20 22 24 25 26 27 26 26 27 28 28 29 29 30 31 33 34 34 34 34 33 34 34 35 37 38 38 37 35 34 33 34
Wind_Direction
297 298 299 301 303 305 307 309 311 311 312 314 315 316 317 318 319 320 321 322 323 323 323 323 323 323 322 320 317 314 312 309 306 304 303 302 301 301 301 302 302 302 302 303 302 302 302 301 301 300 300 300 299 298 297 296 296 295 294 293 293 292 291 291 289 289 288 287 285 284 282 281 280 280 280 280 281 281 281 282 282 283 283 283 284 284
300 301 302 303 304 305 308 310 310 311 312 313 314 315 315 316 317 319 320 320 321 322 322 323 324 324 323 322 321 320 318 315 312 309 306 304 303 302 302 302 302 302 302 302 302 302 302 301 301 300 300 299 299 298 297 296 295 295 294 293 293 292 291 291 290 289 288 287 286 285 284 283 282 282 282 282 282 282 282 282 282 282 282 283 283 283
302 303 304 305 305 306 309 310 311 311 311 312 313 313 314 315 316 318 319 320 320 321 322 323 324 324 324 325 324 323 322 319 316 313 310 307 305 304 303 302 302 302 302 302 302 301 301 301 300 300 300 299 299 298 297 296 296 295 294 294 293 293 292 291 291 290 289 288 287 286 285 284 284 283 283 282 282 282 282 282 282 282 282 282 282 282
304 305 306 307 308 309 310 311 311 311 311 311 312 313 314 315 317 318 319 320 320 321 321 322 323 324 325 325 326 325 323 321 319 316 313 310 308 306 304 303 302 302 302 301 301 301 301 301 300 300 300 299 299 298 297 297 296 296 295 295 294 293 293 292 292 291 290 289 288 287 286 285 285 284 284 283 283 282 282 282 282 282 282 282 282 282
305 306 307 308 309 310 311 312 312 312 311 311 312 313 315 317 318 320 320 321 321 321 321 322 324 325 326 326 326 326 324 323 321 318 316 313 311 308 306 304 303 302 302 301 302 301 302 301 301 301 301 300 299 299 298 297 297 297 296 296 295 294 293 293 292 292 291 290 289 288 287 286 285 284 284 283 283 283 283 283 282 282 282 282 282 282
305 307 308 309 310 311 312 313 313 313 313 313 314 315 317 319 320 321 322 321 320 321 321 323 324 326 327 328 327 327 326 324 322 320 318 315 313 310 308 306 304 303 302 302 302 302 303 303 303 303 302 301 300 299 298 297 297 296 296 295 294 293 293 293 292 292 291 290 289 288 287 286 285 285 284 284 283 283 283 282 282 282 281 281 281 281
307 308 309 310 310 311 313 314 314 314 315 316 317 318 320 321 322 322 322 321 320 321 323 324 326 327 328 328 328 327 326 324 322 320 318 316 314 311 308 306 305 303 303 303 303 303 303 303 303 303 301 300 299 297 296 296 295 294 294 293 293 292 292 292 291 291 290 289 289 288 287 286 285 284 284 283 283 283 282 282 282 281 281 281 281 281
308 309 310 310 311 312 314 315 317 318 318 319 320 321 321 322 322 322 322 321 321 323 324 325 326 327 327 327 327 327 326 324 323 321 319 317 314 312 309 308 306 305 304 304 303 304 304 303 303 302 300 299 297 295 294 293 292 292 291 291 291 291 290 290 290 289 288 288 287 286 286 285 284 284 283 283 283 282 282 282 281 281 281 281 281 281
308 309 310 311 312 314 315 317 319 321 321 321 321 321 321 322 322 322 323 323 323 323 323 324 324 324 325 326 327 327 326 325 324 322 320 318 316 314 312 311 309 308 307 306 305 305 305 304 303 302 300 299 296 294 292 291 290 289 289 289 289 289 289 288 288 287 286 286 285 285 284 284 284 283 283 283 282 282 282 282 281 281 281 281 281 280
309 310 311 312 313 315 317 319 322 322 322 322 321 321 321 322 323 324 324 323 321 320 320 321 322 322 324 326 327 328 327 326 324 323 322 320 319 318 317 315 314 312 311 309 308 307 307 306 305 304 302 300 298 296 293 291 290 289 288 288 288 288 288 287 287 286 285 284 284 283 283 283 283 283 283 283 282 282 282 282 282 281 281 281 281 280
308 310 312 313 314 316 318 320 322 323 323 322 322 322 323 323 323 322 320 318 317 317 318 319 321 323 325 327 328 328 327 326 325 324 323 323 322 321 320 319 318 316 314 313 311 310 310 309 308 306 304 302 300 298 296 294 292 291 290 289 288 288 287 286 285 284 284 283 282 282 282 282 283 283 283 283 282 282 282 282 281 281 281 281 281 280
308 310 311 313 315 317 318 320 322 323 323 322 322 322 323 320 318 315 312 311 313 315 317 319 321 323 325 327 328 328 328 327 326 325 325 325 325 324 323 322 321 319 318 316 315 314 313 312 310 309 307 305 303 302 300 297 295 294 292 291 289 288 287 286 285 284 283 282 281 281 281 281 282 282 282 282 282 282 282 281 281 281 281 281 281 281
307 309 311 312 314 315 316 318 319 320 320 320 319 318 316 312 310 308 307 308 311 314 316 318 320 322 324 326 328 328 328 327 326 325 325 324 324 324 324 323 322 321 320 318 317 316 315 313 312 311 310 309 307 305 303 300 298 297 295 294 293 291 290 288 286 285 283 282 281 281 281 281 281 281 281 281 281 281 281 281 281 281 281 281 281 280
305 307 308 309 310 311 313 314 315 316 316 316 315 313 310 308 306 305 304 306 309 313 315 315 317 320 322 325 326 327 327 326 325 323 321 320 320 322 322 321 320 320 319 318 317 317 317 316 314 313 312 311 310 308 306 304 303 302 301 300 299 297 295 293 291 288 286 284 283 282 281 281 281 281 281 281 281 280 280 280 280 280 280 280 280 280
301 302 303 304 305 306 308 310 311 312 313 313 312 310 309 306 304 302 302 304 307 310 312 314 316 318 320 323 325 326 326 324 321 319 317 316 317 319 320 319 318 318 318 318 318 318 318 318 317 316 315 314 313 313 312 311 311 311 310 308 306 303 300 297 294 291 288 286 285 284 283 282 281 280 280 280 280 280 279 279 279 279 279 279 279 279
297 298 299 300 301 303 305 307 307 308 309 310 309 307 304 300 299 300 301 303 306 308 310 312 315 317 319 321 323 324 324 321 318 316 315 315 316 318 320 319 318 318 319 320 321 321 321 321 320 319 318 318 317 317 318 318 318 318 316 313 310 306 302 298 295 292 290 288 286 285 284 283 282 281 280 279 279 279 279 279 278 278 278 278 278 278
293 294 295 296 298 300 303 304 303 303 305 306 306 304 300 298 298 299 299 302 304 307 309 311 313 314 316 318 321 323 322 320 317 316 315 315 317 320 322 321 321 321 322 322 323 323 323 323 322 322 321 320 321 321 321 321 321 320 319 316 313 310 306 302 298 295 292 289 288 286 285 283 282 281 280 279 279 278 278 278 278 278 278 278 278 278
289 290 291 293 294 297 300 300 299 299 301 301 301 301 300 298 297 297 297 299 301 304 307 309 310 310 311 314 317 321 320 319 317 316 315 315 317 320 323 323 323 323 323 324 324 325 325 324 324 323 323 322 322 322 322 322 321 321 320 318 316 313 309 305 302 298 294 292 290 288 286 285 284 282 281 280 279 279 279 279 279 279 278 278 278 278
286 288 289 290 293 297 299 298 298 297 297 297 297 297 294 294 294 294 294 295 298 301 304 306 307 308 308 310 314 318 317 317 316 315 314 315 317 320 323 324 324 323 323 324 324 325 325 324 324 323 323 322 321 321 321 321 322 322 321 319 317 314 310 306 303 299 296 294 292 290 289 287 286 284 282 281 280 280 279 279 279 279 279 279 278 278
283 286 287 290 293 295 296 297 298 299 298 297 295 292 289 289 290 290 291 293 296 299 302 304 304 305 306 307 310 313 315 315 315 314 313 314 316 319 321 323 323 322 322 322 323 324 324 324 323 322 322 321 321 321 321 322 322 322 321 319 316 313 310 307 304 301 298 295 293 292 290 289 287 285 284 282 281 281 280 280 279 279 279 278 278 277
281 284 287 288 289 289 290 294 297 297 296 295 292 288 287 288 289 290 292 294 296 298 300 301 301 302 303 303 305 308 311 313 313 312 312 313 314 316 319 320 320 319 319 320 321 323 323 322 321 321 321 320 320 321 322 322 322 322 321 319 316 314 312 310 307 304 301 298 295 293 291 289 287 285 284 283 282 281 280 280 279 279 278 278 277 277
279 283 286 286 285 286 288 292 294 294 293 290 287 286 288 289 291 293 294 295 296 297 298 298 299 299 299 300 302 306 309 311 310 310 310 309 310 312 316 317 317 317 316 318 320 321 320 320 319 319 320 320 320 321 322 322 322 321 320 319 318 317 316 315 313 311 308 304 300 297 294 292 289 287 285 284 282 281 280 279 279 278 278 277 277 276
273 278 281 282 282 284 287 289 290 290 289 287 286 287 289 290 291 292 294 294 295 296 297 297 298 297 297 298 301 305 308 309 309 308 307 304 304 308 312 314 314 314 314 316 318 319 318 318 318 318 319 320 320 321 322 322 321 321 321 320 320 320 320 320 320 318 316 313 309 305 301 298 294 291 289 286 284 282 281 280 279 278 278 277 276 276
264 268 272 274 276 278 281 282 283 284 284 284 285 286 288 289 290 291 292 293 294 295 296 296 296 296 297 300 303 307 308 309 308 306 302 298 300 305 309 311 312 312 313 315 316 317 317 316 317 318 319 319 320 321 321 321 321 321 321 322 322 323 323 323 322 320 318 315 311 308 304 300 297 294 291 288 286 284 282 281 280 279 278 277 276 276
264 266 268 270 272 273 275 276 278 279 280 281 283 285 286 287 288 289 290 291 291 292 293 294 294 296 299 303 305 305 305 304 302 299 297 296 298 302 307 309 311 311 312 314 315 316 316 315 316 317 318 319 320 321 321 321 322 322 322 323 324 324 323 322 320 317 314 311 307 304 301 298 296 293 291 289 287 285 283 282 280 279 277 276 275 275
268 269 270 271 271 271 271 272 274 275 277 279 281 282 284 285 285 286 286 286 287 288 289 290 292 296 300 301 299 297 297 296 295 294 294 296 298 301 305 308 310 311 311 313 314 314 314 314 314 315 317 318 320 321 321 322 322 322 323 323 322 322 320 318 316 313 310 307 304 301 298 297 295 294 293 292 290 289 286 284 282 280 278 276 275 274
269 269 270 270 269 268 268 269 270 271 273 274 276 277 278 279 281 281 281 282 284 286 288 290 292 294 295 293 291 290 292 292 292 292 294 296 298 300 304 308 310 310 310 311 312 312 312 312 313 314 316 318 320 321 321 322 322 321 321 320 320 319 317 316 314 312 309 306 303 301 299 299 299 300 299 299 297 295 293 290 287 284 281 279 277 275
269 269 269 268 268 267 266 266 267 267 268 269 269 268 268 269 271 273 275 279 282 283 284 285 287 288 287 286 286 288 290 290 291 293 296 298 297 297 302 306 308 309 309 309 310 311 310 310 312 314 315 317 319 320 320 320 320 319 318 318 317 317 316 315 314 312 310 308 306 304 304 305 306 306 306 306 304 302 300 297 293 289 285 282 281 279
270 270 269 269 268 267 266 266 266 266 267 267 266 264 261 260 262 266 271 275 277 277 278 278 278 279 280 283 285 287 289 291 293 297 300 299 296 296 301 304 305 306 308 309 310 310 309 309 310 312 314 315 316 317 318 318 317 317 317 316 317 317 317 316 315 314 312 310 309 309 309 310 311 311 311 309 308 306 303 300 296 291 288 285 283 282
272 272 272 272 271 271 269 269 269 269 269 269 268 265 261 260 261 265 270 271 271 271 272 272 273 274 276 282 287 290 291 294 298 301 300 297 294 296 300 302 304 305 308 310 311 310 309 309 309 310 311 312 313 314 315 316 316 316 317 317 317 318 317 317 316 315 313 312 312 312 312 313 313 312 311 309 307 305 302 298 295 291 289 287 286 286
279 280 280 279 278 277 277 276 276 276 275 274 272 269 266 265 266 269 271 269 267 267 269 270 271 273 276 280 285 288 290 295 299 300 299 296 294 296 299 301 303 306 308 308 307 307 306 307 308 308 309 310 312 313 314 315 316 317 317 318 317 317 317 317 316 315 314 313 313 313 313 312 311 310 309 307 304 302 300 297 295 293 291 291 291 291
286 286 286 285 284 283 283 284 284 284 284 283 281 278 276 275 275 275 274 272 270 269 268 270 272 275 277 279 281 284 288 294 298 300 300 297 296 297 299 301 303 305 306 304 301 299 299 301 304 307 309 310 312 313 314 315 316 317 317 317 316 316 316 316 315 314 314 313 313 312 312 311 310 308 307 305 303 301 300 298 297 297 296 296 296 296
283 283 283 283 283 284 285 286 287 288 288 288 288 287 286 286 285 284 281 278 275 273 273 273 275 278 281 283 284 286 290 295 299 302 302 299 297 298 300 301 302 304 305 304 301 297 294 296 301 306 308 310 312 313 314 315 315 316 316 315 314 314 314 314 314 313 313 312 312 311 310 309 308 307 306 305 304 303 302 302 302 301 300 298 297 297
272 273 275 277 279 281 283 285 285 286 287 287 288 288 289 289 289 288 287 284 282 281 280 280 281 283 285 287 288 290 293 297 302 304 303 300 298 298 300 302 302 303 304 303 302 299 297 296 299 302 305 308 310 311 312 314 315 315 314 313 313 313 313 313 313 312 312 311 311 310 309 309 309 308 308 307 307 306 306 306 305 303 300 297 295 295
274 273 274 276 278 281 283 284 285 285 285 285 286 286 287 288 288 289 290 290 289 288 288 288 288 288 288 289 290 292 295 300 303 304 302 300 299 299 301 302 303 303 303 302 301 300 298 298 299 300 302 306 309 310 312 313 313 313 313 312 311 311 311 311 311 311 311 311 310 310 310 311 311 310 310 310 310 309 308 307 305 302 299 296 293 293
281 280 280 280 282 283 285 287 288 288 287 287 287 287 288 289 290 291 292 293 292 291 291 292 293 293 291 290 290 292 297 301 303 302 301 300 300 300 300 301 303 304 302 301 300 299 298 299 300 301 302 304 306 310 312 313 313 312 311 310 310 310 310 310 311 311 312 312 312 312 313 313 313 312 312 311 310 309 307 304 303 301 299 297 296 295
280 280 280 281 282 283 285 288 289 289 289 289 290 290 291 292 294 295 296 295 294 293 293 293 293 293 292 293 293 294 297 299 300 300 301 301 302 302 301 302 304 304 302 300 299 299 298 298 300 302 302 302 304 307 310 312 311 310 310 310 310 310 310 311 312 313 313 314 314 314 314 314 313 313 312 311 310 308 306 304 304 304 303 302 301 300
278 278 278 280 281 282 284 285 286 286 287 288 289 290 291 291 292 294 295 295 294 294 293 292 291 291 291 293 294 296 297 298 299 300 302 303 304 304 304 304 304 304 302 300 299 298 297 297 297 299 301 302 304 306 309 310 310 310 311 311 310 310 311 313 314 315 315 315 315 315 315 314 314 313 313 312 311 310 308 308 308 308 308 306 304 303
276 277 278 279 281 282 283 284 285 286 286 286 287 287 287 286 286 287 288 289 290 290 290 290 290 290 291 293 294 296 296 297 298 300 303 305 306 306 306 305 304 303 302 300 299 298 296 295 295 296 298 301 304 307 308 309 310 310 311 311 310 311 312 314 315 315 316 316 316 316 315 315 315 315 314 314 314 312 311 310 309 309 308 307 305 303
270 273 275 277 279 281 282 284 284 285 284 283 283 282 281 279 279 280 282 285 287 288 289 290 291 292 293 294 295 295 296 297 299 302 304 306 307 307 306 305 303 302 301 300 298 297 296 296 297 298 299 300 303 305 307 308 309 310 311 311 311 312 314 314 315 316 316 317 317 317 317 316 316 316 315 314 313 312 311 309 309 308 307 306 305 305
264 266 268 270 272 275 278 280 281 281 281 280 278 277 275 275 276 278 281 284 287 289 290 291 292 293 294 295 295 295 297 298 301 304 306 308 308 308 306 303 302 301 299 298 297 297 297 298 299 300 301 302 303 305 306 307 309 309 310 309 309 311 314 314 315 317 318 317 317 316 316 316 316 316 315 313 312 310 309 308 308 307 307 306 306 306
270 267 266 266 267 268 271 273 274 275 275 276 275 274 274 275 277 280 284 286 289 290 291 292 294 295 295 296 295 296 298 301 304 306 307 308 308 307 305 302 300 298 297 297 297 298 299 300 300 301 301 303 303 303 304 306 307 308 307 307 309 312 313 314 315 316 316 315 315 315 316 317 318 318 317 315 313 311 311 310 309 308 308 308 308 307
282 278 274 271 268 267 268 269 271 272 272 273 273 273 274 277 279 282 285 287 289 290 292 294 295 296 296 297 298 299 301 303 305 307 307 308 307 306 303 300 298 296 296 296 298 299 301 301 301 302 303 304 303 301 302 304 306 307 306 307 309 309 309 310 313 314 314 314 315 317 319 320 321 320 318 316 314 314 313 313 312 311 310 309 308 308
288 287 284 278 272 269 269 269 270 271 272 273 273 275 277 279 282 284 286 287 289 290 292 294 295 296 296 297 298 301 303 304 305 306 307 307 306 304 302 299 297 296 296 296 298 300 302 302 302 302 303 303 301 300 300 301 304 306 307 308 307 305 303 306 310 313 314 316 317 319 321 322 322 320 319 317 316 315 314 313 312 312 311 310 309 307
292 292 290 285 278 272 270 269 270 271 273 274 275 277 279 281 283 284 285 287 288 290 291 293 294 294 293 295 299 302 304 305 306 306 306 306 305 303 300 298 297 296 297 298 299 300 300 301 302 303 303 301 298 296 296 298 301 303 305 306 306 305 305 307 309 311 312 314 317 320 322 323 322 320 318 316 314 314 312 311 309 308 308 307 305 303
290 291 290 288 283 277 272 271 271 272 273 274 275 276 278 279 281 282 284 285 287 288 290 291 292 291 292 295 299 302 304 305 306 306 306 306 304 301 298 297 296 297 297 298 299 299 299 298 300 300 300 298 296 294 293 295 297 300 302 304 305 305 306 307 309 310 312 314 316 320 322 323 321 317 312 311 310 309 308 306 304 303 303 303 302 301
287 288 288 287 284 280 276 273 272 271 271 271 273 274 275 277 278 280 281 283 285 286 288 289 290 291 292 295 298 301 303 305 306 306 306 305 304 301 299 297 296 296 296 295 295 295 296 297 298 297 294 292 291 292 294 295 295 296 299 302 303 304 304 306 308 312 314 315 316 318 321 320 317 312 308 306 305 304 303 302 301 301 301 301 301 302
285 285 285 284 282 279 276 272 270 269 268 269 271 273 274 276 277 278 280 282 283 285 286 287 289 290 292 295 298 301 302 303 305 305 305 305 304 303 302 301 299 298 296 295 294 294 294 295 295 293 290 288 287 289 292 295 295 295 298 300 301 302 303 305 309 312 315 315 315 316 315 313 310 307 305 303 301 300 300 301 302 302 302 302 303 303
281 282 282 281 280 278 275 272 271 269 269 270 271 273 275 277 278 279 279 281 282 283 284 286 287 289 291 294 298 300 302 303 303 304 304 303 304 304 305 305 303 302 300 299 299 299 298 297 295 292 289 287 286 288 292 295 297 298 300 300 300 302 304 305 307 310 311 311 310 309 306 304 301 300 300 300 299 299 300 302 303 304 304 304 304 305
280 280 281 281 280 279 278 276 275 274 273 274 275 276 278 279 280 280 280 280 281 282 283 285 287 288 290 293 297 300 301 302 302 302 303 303 303 304 305 306 306 306 307 306 304 303 301 298 297 295 293 290 288 288 291 295 298 300 300 299 299 300 301 302 304 305 306 304 303 301 300 299 298 299 299 299 299 300 301 302 303 305 306 306 306 306
283 283 283 282 282 282 282 281 281 280 279 279 279 280 280 280 279 279 279 280 280 282 283 285 286 287 289 293 297 299 301 301 301 301 302 302 303 304 305 306 308 310 310 307 304 302 300 299 298 299 299 298 295 292 291 293 296 297 297 296 297 297 297 297 298 300 300 299 299 299 299 300 301 301 301 300 299 299 300 302 303 305 307 308 307 308
Height
1482 1481 1481 1480 1479 1478 1477 1477 1477 1475 1474 1474 1473 1472 1471 1471 1470 1470 1469 1468 1468 1467 1467 1466 1465 1465 1464 1464 1463 1462 1462 1461 1461 1460 1459 1459 1458 1457 1457 1456 1455 1454 1454 1453 1453 1452 1452 1452 1451 1451 1450 1450 1449 1449 1449 1448 1448 1448 1448 1448 1447 1447 1447 1447 1446 1446 1445 1445 1444 1444 1443 1443 1443 1442 1442 1442 1442 1442 1442 1441 1441 1441 1441 1441 1441 1441
1480 1479 1479 1479 1478 1477 1476 1476 1475 1474 1473 1472 1471 1471 1470 1469 1469 1468 1468 1467 1467 1466 1465 1464 1464 1463 1463 1462 1462 1461 1460 1460 1459 1458 1458 1457 1457 1456 1455 1455 1454 1453 1452 1452 1451 1451 1450 1450 1449 1449 1448 1448 1447 1447 1447 1446 1446 1446 1446 1446 1445 1445 1445 1445 1444 1444 1443 1443 1442 1442 1442 1441 1441 1440 1440 1440 1440 1439 1439 1439 1439 1439 1439 1439 1439 1439
1478 1477 1477 1477 1476 1475 1474 1474 1473 1472 1472 1470 1470 1469 1468 1468 1467 1467 1466 1466 1465 1464 1464 1463 1462 1462 1462 1461 1460 1460 1459 1458 1458 1457 1457 1456 1455 1455 1454 1453 1452 1452 1451 1450 1450 1449 1449 1448 1448 1447 1447 1446 1446 1445 1445 1444 1444 1444 1443 1443 1443 1443 1443 1442 1442 1442 1442 1441 1441 1440 1440 1439 1439 1438 1438 1438 1437 1437 1437 1437 1437 1437 1437 1437 1437 1437
1476 1476 1475 1475 1474 1473 1473 1472 1472 1471 1470 1469 1468 1467 1467 1466 1466 1465 1465 1464 1463 1463 1462 1462 1462 1461 1460 1460 1459 1459 1458 1457 1457 1456 1455 1454 1454 1453 1452 1452 1451 1450 1450 1449 1448 1448 1447 1447 1446 1446 1445 1445 1444 1443 1443 1442 1442 1442 1442 1441 1441 1441 1441 1440 1440 1440 1439 1439 1439 1438 1437 1437 1437 1436 1436 1436 1435 1435 1435 1435 1435 1435 1434 1434 1434 1434
1475 1474 1473 1473 1472 1472 1471 1471 1470 1469 1468 1467 1467 1466 1466 1465 1464 1464 1463 1462 1462 1462 1461 1461 1460 1460 1459 1459 1458 1457 1457 1456 1455 1455 1454 1453 1452 1452 1451 1451 1450 1449 1448 1448 1447 1447 1446 1445 1445 1444 1444 1443 1442 1442 1442 1441 1441 1440 1440 1439 1439 1438 1438 1438 1438 1437 1437 1437 1437 1436 1436 1435 1435 1434 1434 1433 1433 1433 1433 1433 1432 1432 1432 1432 1432 1432
1473 1472 1472 1471 1470 1470 1469 1469 1468 1467 1467 1466 1465 1465 1464 1463 1463 1462 1462 1461 1461 1460 1460 1459 1459 1459 1458 1457 1457 1456 1456 1455 1454 1453 1453 1452 1451 1451 1450 1449 1448 1448 1447 1447 1446 1445 1445 1444 1443 1443 1442 1442 1441 1441 1440 1439 1439 1438 1438 1437 1437 1437 1436 1436 1436 1435 1435 1435 1434 1434 1434 1433 1432 1432 1432 1431 1431 1431 1431 1431 1430 1430 1430 1430 1430 1430
1471 1471 1470 1470 1469 1468 1468 1467 1467 1466 1465 1464 1463 1463 1462 1462 1462 1461 1460 1460 1459 1459 1458 1458 1458 1457 1457 1456 1456 1455 1454 1454 1453 1452 1452 1451 1450 1449 1449 1448 1447 1447 1446 1445 1445 1444 1444 1443 1442 1442 1441 1441 1440 1439 1439 1438 1437 1437 1436 1436 1435 1435 1434 1434 1433 1433 1433 1433 1432 1432 1432 1431 1431 1430 1430 1429 1429 1429 1428 1428 1428 1428 1428 1428 1428 1428
1469 1469 1469 1468 1467 1467 1466 1466 1465 1464 1463 1462 1462 1461 1461 1460 1460 1460 1459 1458 1458 1457 1457 1457 1456 1456 1456 1455 1455 1454 1453 1452 1452 1451 1450 1450 1449 1448 1447 1447 1446 1446 1445 1444 1444 1443 1443 1442 1442 1441 1440 1440 1439 1438 1437 1437 1436 1435 1435 1434 1433 1433 1432 1432 1432 1431 1431 1431 1430 1430 1430 1429 1429 1428 1428 1427 1427 1427 1426 1426 1426 1426 1426 1426 1426 1426
1468 1467 1467 1466 1466 1465 1464 1464 1463 1463 1462 1461 1461 1460 1459 1459 1458 1458 1458 1457 1457 1456 1456 1455 1455 1455 1454 1454 1453 1452 1452 1451 1450 1449 1449 1448 1447 1447 1446 1446 1445 1445 1444 1444 1443 1442 1442 1441 1441 1440 1439 1438 1438 1437 1436 1435 1435 1434 1433 1432 1432 1431 1431 1430 1430 1429 1429 1428 1428 1428 1427 1427 1427 1426 1426 1425 1425 1424 1424 1424 1424 1424 1424 1423 1423 1423
1466 1466 1465 1465 1464 1463 1463 1462 1462 1462 1461 1460 1459 1459 1458 1457 1457 1456 1456 1456 1455 1455 1454 1454 1454 1453 1453 1452 1452 1451 1450 1449 1449 1448 1447 1447 1446 1446 1445 1445 1444 1444 1443 1443 1442 1442 1441 1440 1440 1439 1438 1437 1436 1436 1435 1434 1433 1432 1432 1431 1430 1430 1429 1428 1428 1427 1427 1427 1426 1426 1425 1425 1425 1424 1424 1423 1423 1422 1422 1422 1422 1422 1421 1421 1421 1421
1464 1464 1463 1463 1462 1462 1461 1461 1460 1460 1460 1459 1458 1457 1457 1457 1456 1455 1454 1454 1454 1454 1453 1453 1452 1452 1451 1450 1450 1449 1448 1448 1447 1447 1446 1445 1445 1444 1444 1443 1443 1442 1442 1442 1441 1441 1440 1439 1438 1437 1437 1436 1435 1434 1433 1432 1432 1431 1430 1429 1429 1428 1427 1427 1426 1426 1425 1425 1424 1424 1423 1423 1422 1422 1422 1422 1421 1421 1420 1420 1420 1419 1419 1419 1419 1419
1463 1462 1462 1461 1461 1460 1460 1459 1459 1459 1458 1457 1457 1456 1456 1456 1455 1454 1454 1453 1452 1452 1452 1451 1451 1450 1450 1449 1448 1447 1447 1446 1445 1444 1444 1443 1443 1443 1442 1442 1442 1441 1441 1440 1440 1439 1438 1438 1437 1436 1435 1434 1433 1433 1432 1431 1430 1430 1429 1428 1427 1427 1426 1425 1425 1424 1423 1423 1422 1422 1421 1421 1421 1420 1420 1419 1419 1419 1418 1418 1417 1417 1417 1417 1417 1416
1461 1461 1460 1460 1459 1459 1459 1458 1458 1457 1457 1457 1456 1455 1455 1455 1454 1453 1452 1452 1451 1451 1450 1449 1449 1448 1448 1448 1447 1446 1445 1444 1443 1442 1442 1442 1441 1441 1441 1440 1440 1439 1439 1438 1438 1437 1437 1436 1435 1434 1434 1433 1432 1431 1430 1430 1429 1428 1427 1427 1426 1425 1425 1424 1423 1422 1422 1421 1421 1420 1419 1419 1418 1418 1418 1417 1417 1417 1416 1416 1415 1415 1415 1414 1414 1414
1460 1459 1459 1458 1458 1458 1457 1457 1457 1456 1456 1455 1455 1455 1454 1454 1453 1452 1451 1450 1450 1449 1449 1448 1447 1447 1447 1447 1446 1445 1444 1443 1442 1441 1441 1440 1440 1440 1439 1439 1438 1438 1437 1437 1436 1436 1436 1435 1434 1433 1432 1432 1431 1430 1429 1428 1427 1427 1426 1425 1424 1424 1423 1422 1422 1421 1420 1419 1419 1418 1417 1417 1417 1416 1416 1415 1415 1415 1414 1414 1413 1413 1412 1412 1412 1412
1458 1458 1457 1457 1457 1456 1456 1456 1455 1455 1454 1454 1454 1453 1453 1452 1452 1451 1450 1449 1448 1448 1447 1446 1446 1445 1445 1445 1445 1444 1443 1442 1441 1440 1439 1439 1439 1439 1439 1437 1437 1436 1436 1435 1435 1434 1434 1433 1432 1432 1431 1430 1429 1428 1427 1426 1426 1425 1424 1423 1423 1422 1421 1421 1420 1419 1418 1417 1417 1416 1416 1415 1415 1414 1414 1413 1413 1412 1412 1412 1411 1411 1411 1410 1410 1410
1457 1457 1456 1456 1455 1455 1455 1454 1454 1453 1453 1453 1452 1452 1452 1451 1451 1450 1449 1448 1447 1446 1446 1444 1443 1442 1442 1443 1443 1443 1442 1441 1440 1439 1438 1437 1437 1438 1437 1436 1435 1434 1434 1434 1433 1432 1432 1432 1431 1430 1429 1428 1427 1427 1426 1425 1424 1423 1423 1422 1421 1420 1420 1419 1418 1417 1417 1416 1415 1414 1414 1413 1413 1412 1412 1411 1411 1411 1410 1410 1409 1409 1409 1408 1408 1408
1455 1455 1454 1454 1453 1453 1453 1453 1452 1452 1452 1451 1451 1451 1450 1450 1449 1449 1448 1447 1446 1445 1444 1444 1442 1441 1440 1440 1441 1442 1441 1440 1438 1437 1436 1435 1435 1436 1436 1435 1433 1432 1432 1432 1431 1431 1430 1430 1429 1428 1427 1427 1426 1425 1424 1423 1423 1422 1421 1420 1420 1419 1418 1417 1416 1416 1415 1414 1413 1412 1412 1411 1411 1410 1410 1409 1409 1408 1408 1408 1407 1407 1407 1406 1406 1406
1453 1453 1453 1452 1452 1452 1452 1452 1451 1451 1451 1450 1450 1449 1449 1448 1448 1447 1447 1446 1445 1444 1443 1443 1442 1441 1440 1438 1439 1440 1440 1438 1437 1435 1434 1432 1432 1433 1433 1432 1432 1430 1430 1429 1429 1429 1428 1428 1427 1427 1426 1425 1424 1424 1423 1422 1421 1421 1420 1419 1418 1417 1416 1415 1414 1414 1413 1412 1412 1411 1410 1410 1409 1408 1408 1407 1407 1407 1406 1406 1405 1405 1405 1404 1404 1403
1452 1452 1451 1451 1450 1450 1450 1450 1450 1449 1449 1449 1448 1448 1447 1447 1446 1446 1445 1445 1444 1443 1443 1442 1441 1440 1439 1438 1438 1438 1438 1437 1436 1434 1432 1431 1430 1430 1431 1430 1429 1428 1428 1427 1427 1427 1427 1426 1426 1425 1424 1424 1423 1422 1422 1421 1420 1419 1418 1417 1416 1415 1414 1413 1413 1412 1411 1410 1410 1409 1408 1408 1407 1407 1406 1405 1405 1404 1404 1404 1403 1403 1402 1402 1402 1401
1450 1450 1449 1449 1449 1448 1448 1448 1448 1448 1447 1447 1447 1447 1446 1445 1445 1445 1444 1443 1443 1442 1442 1441 1440 1439 1438 1437 1437 1437 1437 1436 1434 1433 1431 1429 1428 1428 1429 1428 1427 1427 1426 1426 1426 1425 1425 1424 1424 1423 1423 1422 1422 1421 1420 1419 1418 1417 1416 1415 1415 1414 1413 1412 1411 1410 1409 1409 1408 1407 1407 1406 1405 1405 1404 1403 1403 1402 1402 1402 1401 1401 1400 1400 1399 1399
1448 1448 1448 1448 1448 1447 1446 1446 1447 1447 1446 1446 1445 1445 1444 1444 1443 1443 1442 1442 1441 1441 1440 1439 1438 1438 1437 1437 1436 1436 1436 1435 1434 1432 1430 1427 1426 1427 1427 1427 1426 1425 1424 1424 1424 1424 1423 1422 1422 1422 1421 1420 1420 1419 1418 1417 1417 1416 1415 1414 1413 1412 1411 1410 1409 1409 1408 1407 1407 1406 1405 1404 1403 1403 1402 1401 1401 1400 1400 1399 1399 1398 1398 1397 1397 1397
1446 1446 1446 1447 1446 1446 1445 1445 1445 1445 1445 1444 1444 1443 1443 1442 1442 1441 1441 1441 1440 1439 1439 1438 1437 1437 1436 1435 1435 1434 1435 1435 1434 1432 1429 1427 1425 1425 1426 1426 1425 1424 1422 1422 1422 1422 1422 1421 1420 1420 1419 1419 1418 1417 1416 1415 1415 1414 1413 1412 1411 1410 1410 1409 1408 1407 1406 1405 1404 1404 1403 1402 1402 1401 1400 1399 1399 1398 1398 1397 1397 1396 1396 1395 1395 1395
1444 1444 1444 1444 1444 1444 1443 1443 1443 1443 1443 1443 1442 1442 1441 1441 1441 1440 1439 1439 1438 1438 1437 1436 1436 1435 1435 1434 1433 1433 1433 1433 1432 1431 1430 1427 1424 1423 1424 1425 1424 1422 1421 1420 1420 1420 1419 1418 1418 1417 1417 1417 1416 1415 1414 1413 1413 1412 1411 1410 1409 1408 1407 1407 1406 1405 1404 1403 1402 1402 1401 1400 1399 1399 1398 1397 1397 1396 1396 1395 1395 1394 1394 1393 1393 1392
1443 1443 1443 1443 1443 1442 1442 1442 1442 1442 1442 1441 1441 1440 1440 1439 1439 1438 1438 1437 1437 1436 1435 1434 1434 1433 1432 1432 1432 1431 1431 1431 1431 1430 1429 1426 1424 1422 1423 1423 1422 1420 1419 1418 1418 1418 1417 1416 1416 1415 1415 1414 1414 1413 1412 1412 1411 1410 1409 1408 1407 1406 1405 1404 1403 1403 1402 1401 1400 1400 1399 1398 1397 1397 1396 1396 1395 1394 1394 1393 1393 1392 1392 1391 1390 1390
1442 1441 1441 1441 1441 1441 1441 1441 1441 1440 1440 1440 1439 1438 1438 1437 1437 1437 1436 1435 1435 1435 1434 1433 1432 1431 1430 1430 1430 1430 1430 1430 1430 1429 1428 1426 1423 1421 1421 1422 1421 1419 1417 1416 1416 1416 1415 1413 1413 1413 1412 1412 1412 1411 1411 1410 1409 1408 1407 1406 1405 1404 1403 1403 1402 1401 1400 1399 1398 1397 1397 1396 1395 1395 1394 1394 1393 1392 1392 1391 1391 1390 1389 1389 1388 1388
1440 1440 1439 1439 1439 1439 1439 1439 1439 1439 1439 1438 1437 1437 1437 1436 1436 1435 1434 1434 1433 1433 1433 1432 1431 1430 1429 1429 1429 1429 1429 1429 1429 1428 1427 1425 1422 1420 1419 1420 1420 1418 1416 1414 1414 1414 1412 1411 1410 1410 1410 1410 1410 1409 1408 1407 1407 1406 1405 1404 1403 1402 1402 1401 1400 1399 1398 1397 1397 1396 1395 1394 1393 1393 1392 1392 1391 1390 1390 1389 1388 1388 1387 1386 1386 1385
1438 1438 1438 1438 1437 1437 1437 1437 1437 1437 1437 1437 1437 1436 1436 1435 1434 1433 1432 1432 1432 1432 1432 1431 1430 1429 1428 1428 1428 1428 1428 1427 1427 1427 1426 1425 1422 1419 1418 1418 1418 1417 1415 1413 1412 1412 1411 1409 1408 1407 1407 1407 1407 1407 1406 1405 1404 1404 1403 1402 1402 1401 1400 1399 1398 1397 1396 1395 1394 1394 1393 1392 1392 1391 1390 1389 1389 1388 1387 1387 1386 1386 1385 1384 1383 1383
1436 1436 1436 1436 1436 1435 1435 1435 1435 1435 1435 1435 1435 1435 1435 1434 1433 1432 1430 1431 1431 1431 1431 1430 1429 1429 1428 1427 1427 1426 1426 1426 1426 1425 1425 1424 1421 1418 1417 1417 1417 1416 1414 1411 1410 1409 1409 1407 1406 1406 1405 1405 1405 1404 1404 1403 1402 1402 1401 1400 1400 1399 1398 1397 1396 1395 1394 1393 1392 1392 1391 1390 1389 1388 1388 1387 1387 1386 1385 1385 1384 1383 1382 1382 1381 1381
1434 1434 1433 1433 1433 1433 1433 1433 1433 1433 1433 1433 1433 1433 1433 1432 1431 1430 1429 1429 1430 1430 1429 1429 1428 1428 1427 1426 1425 1424 1424 1424 1424 1424 1423 1422 1420 1417 1417 1417 1416 1415 1413 1410 1407 1406 1405 1405 1405 1404 1403 1403 1403 1402 1402 1401 1401 1400 1399 1398 1397 1396 1395 1394 1393 1392 1392 1391 1390 1389 1388 1388 1387 1386 1386 1385 1384 1384 1383 1382 1382 1381 1380 1380 1379 1379
1431 1431 1431 1431 1431 1431 1431 1431 1431 1431 1431 1431 1431 1431 1430 1430 1429 1428 1428 1428 1429 1428 1427 1427 1427 1427 1426 1425 1424 1422 1421 1422 1422 1423 1422 1421 1418 1416 1416 1415 1414 1414 1413 1411 1407 1403 1401 1401 1402 1403 1402 1401 1401 1400 1400 1399 1398 1397 1396 1395 1394 1393 1393 1392 1391 1390 1389 1388 1388 1387 1386 1386 1385 1384 1383 1383 1382 1382 1381 1381 1380 1379 1378 1377 1377 1377
1428 1428 1428 1428 1428 1428 1428 1428 1428 1428 1428 1428 1428 1428 1428 1427 1427 1427 1427 1427 1427 1426 1426 1425 1425 1425 1425 1425 1424 1421 1419 1420 1421 1422 1421 1420 1417 1415 1415 1414 1413 1412 1412 1411 1409 1405 1400 1397 1398 1400 1400 1399 1398 1398 1397 1397 1396 1394 1393 1392 1392 1391 1390 1389 1388 1387 1387 1386 1386 1385 1384 1383 1383 1382 1381 1381 1380 1379 1379 1378 1378 1377 1376 1375 1375 1374
1426 1425 1425 1425 1425 1425 1425 1425 1425 1425 1425 1425 1426 1426 1426 1426 1426 1425 1425 1425 1425 1424 1424 1424 1424 1424 1424 1424 1423 1421 1418 1418 1419 1420 1420 1418 1416 1414 1413 1413 1411 1410 1410 1410 1409 1407 1403 1397 1395 1395 1397 1397 1396 1395 1394 1394 1393 1392 1391 1390 1389 1388 1387 1387 1386 1385 1384 1384 1383 1382 1382 1381 1381 1380 1379 1379 1378 1377 1377 1377 1376 1375 1374 1373 1373 1372
1424 1424 1423 1423 1423 1423 1423 1422 1422 1422 1422 1422 1422 1422 1423 1423 1423 1423 1423 1423 1423 1423 1423 1422 1422 1422 1422 1422 1421 1419 1417 1417 1418 1419 1418 1417 1415 1413 1412 1411 1410 1409 1408 1407 1407 1406 1403 1399 1395 1393 1392 1393 1393 1392 1392 1391 1391 1390 1389 1388 1387 1386 1385 1385 1384 1383 1382 1382 1381 1380 1380 1379 1378 1378 1377 1377 1376 1375 1375 1374 1374 1373 1372 1372 1371 1370
1423 1422 1422 1422 1422 1421 1421 1421 1421 1421 1421 1421 1420 1420 1421 1421 1421 1421 1421 1421 1421 1421 1421 1421 1421 1421 1420 1419 1418 1417 1416 1416 1417 1417 1417 1416 1413 1412 1410 1409 1408 1407 1406 1405 1404 1403 1401 1398 1396 1393 1391 1389 1389 1390 1390 1389 1388 1388 1387 1386 1384 1383 1382 1382 1382 1381 1380 1379 1378 1378 1377 1377 1376 1375 1375 1374 1373 1373 1372 1372 1372 1371 1371 1370 1370 1369
1421 1421 1420 1420 1420 1419 1419 1419 1419 1419 1419 1419 1419 1419 1419 1419 1419 1419 1419 1419 1419 1419 1419 1419 1419 1419 1418 1418 1416 1415 1414 1414 1415 1416 1415 1414 1412 1410 1408 1407 1407 1406 1405 1403 1402 1400 1398 1396 1395 1393 1391 1388 1386 1387 1387 1387 1386 1385 1384 1384 1382 1382 1381 1380 1379 1378 1377 1377 1376 1375 1375 1374 1373 1372 1372 1372 1371 1370 1370 1370 1370 1369 1369 1369 1368 1367
1418 1418 1418 1417 1417 1417 1417 1417 1417 1417 1417 1417 1417 1417 1417 1417 1417 1417 1417 1417 1417 1417 1417 1417 1417 1417 1416 1416 1415 1413 1412 1412 1413 1414 1413 1412 1411 1409 1407 1405 1405 1404 1403 1401 1400 1398 1397 1394 1392 1392 1390 1387 1385 1383 1384 1384 1384 1383 1382 1381 1381 1380 1379 1378 1377 1377 1376 1375 1374 1373 1372 1372 1371 1370 1370 1369 1369 1368 1368 1368 1367 1367 1367 1367 1366 1366
1417 1416 1416 1415 1415 1415 1415 1415 1415 1415 1414 1414 1414 1414 1414 1414 1414 1414 1414 1414 1415 1415 1415 1414 1414 1414 1414 1413 1413 1412 1411 1411 1411 1411 1411 1410 1409 1408 1406 1404 1403 1402 1402 1400 1398 1397 1395 1393 1391 1389 1388 1387 1385 1382 1381 1381 1381 1380 1379 1379 1378 1377 1376 1376 1375 1375 1373 1372 1371 1371 1370 1369 1368 1368 1367 1367 1367 1366 1366 1365 1365 1365 1364 1364 1363 1363
1415 1414 1414 1413 1413 1414 1413 1413 1413 1412 1412 1412 1412 1412 1412 1412 1412 1412 1412 1412 1412 1412 1412 1412 1412 1412 1412 1412 1411 1410 1410 1409 1409 1409 1408 1408 1407 1406 1404 1402 1401 1400 1400 1398 1397 1395 1394 1392 1390 1388 1386 1385 1383 1382 1380 1379 1378 1377 1376 1376 1375 1374 1374 1373 1373 1372 1371 1370 1369 1368 1368 1367 1367 1366 1365 1365 1364 1363 1363 1362 1362 1362 1361 1361 1360 1360
1413 1412 1412 1412 1412 1412 1411 1411 1411 1411 1411 1411 1411 1411 1411 1411 1411 1411 1411 1411 1411 1411 1411 1411 1410 1410 1410 1409 1408 1408 1407 1407 1407 1407 1406 1405 1405 1403 1402 1400 1399 1398 1397 1397 1395 1394 1392 1391 1389 1387 1385 1383 1381 1380 1379 1378 1376 1375 1373 1372 1372 1372 1372 1371 1371 1370 1369 1368 1367 1367 1366 1365 1364 1364 1363 1362 1362 1361 1360 1359 1359 1359 1358 1358 1357 1357
1412 1412 1411 1410 1410 1410 1409 1409 1409 1409 1409 1409 1409 1409 1409 1409 1409 1409 1409 1409 1409 1409 1409 1409 1408 1408 1407 1407 1406 1406 1405 1405 1405 1404 1404 1403 1402 1401 1400 1398 1397 1396 1395 1394 1393 1392 1391 1389 1387 1386 1384 1382 1380 1378 1376 1376 1375 1373 1372 1370 1369 1368 1369 1369 1368 1368 1367 1366 1366 1364 1363 1363 1362 1362 1361 1360 1360 1359 1358 1357 1357 1356 1356 1356 1355 1354
1411 1410 1410 1409 1409 1409 1408 1408 1408 1408 1408 1408 1408 1407 1407 1407 1407 1407 1407 1407 1407 1407 1407 1407 1406 1405 1404 1404 1403 1403 1403 1403 1402 1402 1401 1401 1400 1399 1397 1397 1395 1394 1393 1392 1391 1390 1389 1388 1386 1384 1383 1381 1379 1377 1375 1374 1373 1372 1372 1370 1367 1366 1366 1366 1366 1366 1365 1364 1364 1363 1362 1361 1360 1360 1359 1358 1358 1357 1357 1356 1355 1354 1353 1353 1352 1352
1408 1408 1407 1407 1407 1407 1407 1407 1407 1407 1406 1406 1406 1406 1405 1405 1406 1405 1405 1405 1405 1405 1405 1404 1404 1403 1402 1401 1401 1401 1401 1400 1400 1399 1399 1398 1397 1396 1395 1394 1393 1392 1392 1390 1389 1388 1387 1386 1385 1383 1381 1380 1378 1376 1373 1372 1371 1371 1370 1369 1367 1365 1363 1363 1364 1364 1363 1362 1362 1361 1361 1360 1358 1357 1357 1356 1355 1354 1354 1353 1352 1352 1351 1350 1350 1349
1406 1405 1405 1406 1406 1405 1405 1405 1404 1404 1404 1404 1404 1403 1403 1403 1404 1404 1403 1403 1403 1403 1402 1402 1402 1401 1399 1398 1397 1398 1398 1398 1397 1397 1396 1396 1395 1394 1393 1392 1392 1391 1390 1388 1387 1386 1385 1384 1383 1382 1380 1379 1377 1375 1373 1370 1369 1369 1369 1368 1367 1365 1362 1361 1361 1362 1362 1361 1360 1359 1358 1357 1357 1355 1354 1353 1352 1351 1351 1350 1350 1349 1348 1347 1347 1346
1404 1404 1404 1404 1404 1404 1403 1402 1402 1402 1402 1402 1401 1401 1401 1402 1402 1402 1402 1401 1401 1401 1401 1400 1399 1398 1397 1396 1395 1395 1395 1395 1395 1395 1394 1393 1392 1392 1391 1390 1389 1388 1387 1387 1385 1384 1383 1382 1381 1380 1379 1378 1376 1374 1372 1370 1368 1367 1367 1366 1366 1365 1363 1360 1359 1359 1358 1358 1357 1357 1357 1356 1354 1353 1352 1350 1349 1348 1348 1347 1346 1346 1346 1345 1344 1344
1402 1402 1402 1402 1402 1402 1402 1401 1400 1400 1400 1399 1399 1399 1399 1399 1399 1399 1399 1399 1399 1399 1398 1398 1398 1397 1395 1394 1393 1393 1392 1392 1392 1392 1392 1391 1391 1390 1389 1388 1387 1386 1385 1384 1383 1382 1382 1380 1379 1378 1377 1376 1375 1373 1371 1369 1367 1366 1365 1365 1364 1363 1361 1360 1359 1358 1357 1356 1355 1355 1354 1354 1352 1351 1349 1348 1347 1346 1346 1345 1344 1343 1343 1342 1342 1341
1400 1400 1400 1400 1400 1400 1399 1399 1398 1398 1398 1397 1397 1397 1397 1397 1397 1397 1397 1397 1397 1397 1396 1396 1396 1395 1393 1392 1392 1391 1391 1390 1389 1389 1389 1389 1388 1388 1387 1386 1385 1384 1383 1382 1382 1381 1380 1379 1377 1377 1376 1374 1373 1371 1370 1369 1367 1365 1363 1363 1362 1361 1359 1358 1357 1357 1356 1355 1353 1353 1352 1352 1351 1350 1348 1346 1345 1344 1343 1343 1342 1342 1341 1340 1339 1339
1399 1398 1398 1398 1398 1398 1398 1397 1397 1397 1396 1396 1395 1396 1396 1396 1396 1395 1395 1395 1395 1395 1394 1394 1393 1392 1391 1391 1390 1390 1389 1387 1387 1387 1387 1386 1386 1386 1385 1384 1383 1383 1382 1381 1380 1379 1378 1377 1376 1376 1375 1373 1371 1369 1367 1367 1367 1365 1363 1362 1361 1359 1358 1356 1356 1355 1355 1353 1352 1351 1351 1350 1349 1348 1347 1345 1343 1342 1341 1340 1340 1339 1338 1337 1337 1335
1397 1397 1397 1397 1397 1396 1396 1396 1395 1395 1394 1394 1394 1394 1394 1394 1394 1394 1393 1393 1393 1393 1392 1392 1391 1390 1390 1389 1389 1388 1387 1386 1385 1384 1384 1384 1383 1383 1383 1382 1382 1381 1380 1380 1379 1378 1377 1376 1375 1374 1373 1372 1370 1368 1366 1365 1365 1364 1362 1361 1360 1358 1357 1355 1354 1354 1353 1352 1351 1350 1350 1350 1349 1347 1345 1343 1341 1339 1337 1337 1336 1336 1335 1335 1334 1332
1395 1395 1395 1395 1395 1395 1394 1394 1394 1393 1393 1392 1392 1392 1392 1392 1392 1392 1391 1391 1391 1391 1390 1390 1389 1389 1388 1387 1387 1386 1386 1384 1383 1382 1382 1382 1381 1381 1380 1380 1380 1379 1378 1377 1377 1376 1375 1373 1373 1372 1372 1371 1369 1367 1364 1363 1363 1362 1361 1360 1359 1357 1356 1354 1353 1352 1352 1351 1350 1350 1349 1349 1348 1347 1345 1342 1339 1336 1334 1333 1332 1332 1332 1332 1331 1330
1394 1393 1393 1393 1393 1393 1392 1392 1392 1392 1391 1391 1391 1391 1391 1390 1390 1390 1389 1389 1389 1388 1388 1388 1387 1387 1386 1385 1385 1385 1384 1382 1382 1381 1380 1380 1380 1379 1378 1378 1377 1377 1376 1375 1374 1374 1372 1371 1370 1369 1369 1369 1368 1366 1364 1362 1361 1361 1360 1359 1358 1357 1355 1353 1352 1352 1351 1350 1349 1348 1347 1347 1346 1344 1343 1341 1337 1334 1331 1330 1329 1328 1328 1328 1328 1327
1392 1392 1391 1391 1391 1391 1390 1390 1390 1390 1389 1389 1389 1389 1389 1388 1388 1388 1387 1387 1387 1387 1386 1386 1386 1385 1384 1384 1383 1382 1382 1381 1380 1379 1378 1378 1378 1377 1377 1377 1376 1376 1375 1374 1373 1372 1371 1370 1367 1366 1366 1367 1367 1366 1364 1362 1361 1360 1359 1357 1357 1356 1355 1353 1352 1351 1350 1349 1348 1347 1345 1344 1343 1342 1341 1339 1336 1332 1329 1327 1325 1325 1325 1325 1325 1323